Regional Weather Roundup
Issued by NWS

Home | Current Version | Previous Version | Text Only | Print | Product List | Glossary Off
Versions: 1 2 3 4 5 6 7 8 9 10 11 12 13 14 15 16 17 18 19 20 21 22 23 24 25 26 27 28 29 30 31 32 33 34 35 36 37 38 39 40 41 42 43 44 45 46 47 48 49 50

000
ASUS43 KIND 261359
RWRIN

WEATHER ROUNDUP FOR INDIANA
NATIONAL WEATHER SERVICE INDIANAPOLIS IN
900 AM EST THU FEB 26 2015

NOTE: "FAIR" INDICATES FEW OR NO CLOUDS BELOW 12,000 FEET WITH NO
SIGNIFICANT WEATHER AND/OR OBSTRUCTIONS TO VISIBILITY.

* - STATION DOES NOT REPORT WEATHER SUCH AS PRECIPITATION OR FOG.

+ - STATION NOT QUALITY CONTROLLED BY THE NATIONAL WEATHER SERVICE.
    USE DATA WITH CAUTION...ESPECIALLY DEWPOINT AND RELATIVE
    HUMIDITY OBSERVATIONS.

INZ001>003-010>013-019-020-261500-
NORTHWEST INDIANA

CITY           SKY/WX    TMP DP  RH WIND       PRES   REMARKS
GARY /AIRPORT/ LGT SNOW  18  10  73 NE17      30.16R WCI   2
KNOX *+          N/A     16   5  62 NE12      30.13R WCI   3
MONTICELLO +   LGT SNOW  16  13  88 NE9       30.10R WCI   4
VALPARAISO     LGT SNOW  14   9  80 N6        30.13R WCI   5

$$

LMZ046-743>745-261500-
SOUTHERN LAKE MICHIGAN

STATION/POSITION TIME  TEMP WIND        PRES
                       AIR  DIR/SP/G
                 (UTC) (F)  (DEG/KT/KT) (MB)
MICHIGAN CITY    1300   13   10/ 16/ 18   N/A

$$

INZ004-005-014>016-021>024-261500-
NORTH CENTRAL INDIANA

CITY           SKY/WX    TMP DP  RH WIND       PRES   REMARKS
ELKHART        LGT SNOW  12   3  67 N6        30.15R WCI   3
GOSHEN         LGT SNOW  12   7  80 N10       30.13R VSB 1   WCI  -1
SOUTH BEND     LGT SNOW  12   6  77 NE10      30.14R WCI  -1

$$

INZ006>009-017-018-025>027-261500-
NORTHEAST INDIANA

CITY           SKY/WX    TMP DP  RH WIND       PRES   REMARKS
ANGOLA *+      CLOUDY     9   3  78 E3        30.10R
FORT WAYNE     LGT SNOW  13   7  77 NE14      30.11R WCI  -2

$$

INZ028-029-035-036-043>045-051>053-261500-
WEST CENTRAL INDIANA

CITY           SKY/WX    TMP DP  RH WIND       PRES   REMARKS
CRAWFORDSVL +  CLOUDY    16   9  74 NE9       30.08R WCI   4
GREENCASTLE +  LGT SNOW  18  10  73 NE12      30.07R WCI   5
LAFAYETTE      LGT SNOW  17  13  84 NE10      30.10R FOG     WCI   5
TERRE HAUTE    LGT SNOW  20  15  81 NE12      30.08R WCI   8

$$

INZ030>032-037>040-046>048-054>057-064-065-261500-
CENTRAL INDIANA

CITY           SKY/WX    TMP DP  RH WIND       PRES   REMARKS
ANDERSON       LGT SNOW  12   9  85 NE12G17   30.06  WCI  -2
CP ATTERBURY + LGT SNOW  19  14  79 N8        30.05R WCI   9
COLUMBUS       LGT SNOW  18  12  79 NE12      30.04R FOG     WCI   5
FRANKFORT +    LGT SNOW  17  13  85 N13       30.10R WCI   3
GREENWOOD *+   CLOUDY    16   9  73 NE13      30.05  WCI   2
INDIANAPOLIS   LGT SNOW  17  12  80 NE16      30.05R WCI   2
-EAGLE CREEK   LGT SNOW  16  11  80 NE9       30.05R WCI   4
KOKOMO *+      CLOUDY    12   9  85 E15       30.09R WCI  -4
MT COMFORT *+  CLOUDY    16   5  62 NE15      30.05R WCI   1
SHELBYVILLE    LGT SNOW  18  11  74 N13       30.04R WCI   5
ZIONSVILLE +   LGT SNOW  16  10  77 NE12      30.06R WCI   2

$$

INZ033-034-041-042-049-050-058-059-261500-
EAST CENTRAL INDIANA

CITY           SKY/WX    TMP DP  RH WIND       PRES   REMARKS
MUNCIE         LGT SNOW  12   7  80 NE14      30.06R WCI  -3

$$

INZ060-061-067>069-081>083-085>088-261500-
SOUTHWEST INDIANA

CITY           SKY/WX    TMP DP  RH WIND       PRES   REMARKS
EVANSVILLE     CLOUDY    29  18  63 N8        30.04R WCI  21
HUNTINGBURG *+ SUNNY     27  16  63 N6        30.04R WCI  20

$$

INZ062-063-066-070>080-084-089>092-261500-
SOUTH CENTRAL AND SOUTHEAST INDIANA

CITY           SKY/WX    TMP DP  RH WIND       PRES   REMARKS
BLOOMINGTON    LGT SNOW  20  16  84 NE7       30.03R FOG     WCI  11
SEYMOUR +      LGT SNOW  21  14  73 N12       30.04R WCI   9

$$




USA.gov is the U.S. government's official web portal to all federal, state and local government web resources and services.